Location: Unspecified
(50.1700°N, 6.8600°E)
Time: 21:13:34
(UTC+00:00)

Meteor 2-1 Rocket - Pass Details

Date: 24 January 2019
Orbit: 828 x 908 km, 81.3° (Epoch: 19 February)

Event Time Altitude Azimuth Distance (km) Brightness Sun altitude
Rises 05:50:12 0° 186° (S) 3,368 7.4 -13.8°
Reaches altitude 10° 05:52:36 10° 185° (S) 2,433 6.7 -13.4°
Maximum altitude 05:58:05 79° 100° (E) 850 4.3 -12.6°
Drops below altitude 10° 06:03:37 10° 14° (NNE) 2,450 6.6 -11.7°
Sets 06:06:02 0° 14° (NNE) 3,393 7.3 -11.3°
